Lexington Weather

Lexington, Massachusetts, USA

45°F
4/22/2024 9:29am 
  • Lexington Conditions: Clear
  • Temperature: 44.8°F / 7.1°CWarmer 2.5°F than last hour.
  • Dew Point: 26.2°FDecreased 1.1°Fsince last hour.
  • Relative Humidity: 48%Decreased 7.0% since last hour.
  • Wind: Calm, 10-min avg: Calm, gust: 6 mph
  • Barometer: 29.97 inRising 0.02  inHg/hr Rising Slowly
  • Visibility: 10 miles
  • Rain Today: 0.00 in
  •   

Regional Weather Roundup
for Boston, MA

        
000
ASUS41 KBOX 191610
RWRBOX

REGIONAL WEATHER ROUNDUP
NATIONAL WEATHER SERVICE BOSTON/NORTON MA
1200 PM EDT FRI APR 19 2024

NOTE:  "FAIR" INDICATES FEW OR NO CLOUDS BELOW 12,000 FEET WITH NO 
SIGNIFICANT WEATHER AND/OR OBSTRUCTIONS TO VISIBILITY.

MAZALL-191700-
EASTERN MASSACHUSETTS
  
CITY           SKY/WX    TMP DP  RH WIND       PRES   REMARKS
BOSTON         PTSUNNY   50  42  74 E14       30.18F                  
BEVERLY        SUNNY     49  38  65 SE13      30.18F                  
LAWRENCE       SUNNY     55  32  41 SE9G17    30.18F                  
BEDFORD        PTSUNNY   56  37  49 E8        30.15F                  
NORWOOD        MOSUNNY   58  35  42 VRB5      30.16F                  
MARSHFIELD     SUNNY     50  39  66 E8        30.19F                  
PLYMOUTH       SUNNY     56  37  49 E13G18    30.16F                  
TAUNTON        SUNNY     59  35  40 MISG      30.17F                  
NEW BEDFORD    CLOUDY    55  35  47 SE12G21   30.17F                  
$$

MAZALL-191700-
CAPE COD AND THE ISLANDS
  
CITY           SKY/WX    TMP DP  RH WIND       PRES   REMARKS
FALMOUTH       MOSUNNY   54  36  50 E12       30.17F                  
HYANNIS        SUNNY     51  33  50 SE12G21   30.16F                  
CHATHAM        CLOUDY    50  37  61 E10       30.19F                  
PROVINCETOWN   PTSUNNY   53  38  56 SE12      30.20F                  
NANTUCKET      MOSUNNY   53  36  52 E18G26    30.17F                  
MARTHAS VNYRD  PTSUNNY   54  41  61 NE12      30.17F                  
$$
 
MAZALL-191700-
CENTRAL AND WESTERN MASSACHUSETTS
  
CITY           SKY/WX    TMP DP  RH WIND       PRES   REMARKS
WORCESTER      SUNNY     54  32  43 S14G21    30.13F                  
FITCHBURG      PTSUNNY   56  33  42 SE12G21   30.14F                  
ORANGE         CLOUDY    55  33  43 S14G22    30.14F                  
SPRINGFIELD    PTSUNNY   58  31  35 S6        30.10F                  
WESTFIELD      PTSUNNY   56  34  43 S9        30.13F                  
NORTH ADAMS    CLOUDY    55  32  41 E18G28    30.09F                  
PITTSFIELD     CLOUDY    51  32  48 SE12G26   30.08F                  
$$
 
RIZALL-191700-
RHODE ISLAND
  
CITY           SKY/WX    TMP DP  RH WIND       PRES   REMARKS
PROVIDENCE     CLOUDY    54  35  48 S12       30.18S                  
NEWPORT        CLOUDY    51  36  56 SE9G18    30.17S                  
BLOCK ISLAND   CLOUDY    47  41  80 E9        30.18F                  
SMITHFIELD     CLOUDY    56  33  42 S8        30.17S                  
WESTERLY       NOT AVBL                                               
$$
 
CTZALL-191700-
CONNECTICUT
  
CITY           SKY/WX    TMP DP  RH WIND       PRES   REMARKS
BRADLEY INTL   PTSUNNY   59  35  40 S13       30.14F                  
HARTFORD       MOSUNNY   58  36  43 S8        30.14F                  
PLAINVILLE     FAIR      58  27  31 S10       30.14F                  
BRIDGEPORT     MOSUNNY   50  42  74 E12       30.16F                  
DANBURY        CLOUDY    54  32  43 SE8G20    30.14F                  
GROTON         MOSUNNY   52  37  56 E14G25    30.17S                  
NEW HAVEN      PTSUNNY   55  42  61 SE13G22   30.17S                  
CHESTER        MOSUNNY   55  27  33 SE10G17   30.17S                  
MERIDEN        MOSUNNY   58  31  35 SE10G18   30.15F                  
WILLIMANTIC    MOSUNNY   56  31  38 S12G21    30.15F                  
OXFORD         PTSUNNY   53  33  46 SE12G18   30.15F                  
$$

MEZ002-015-021-024-NHZ003-005-008-011-012-014-VTZ005-008-191700-
NORTHERN NEW ENGLAND
  
CITY           SKY/WX    TMP DP  RH WIND       PRES   REMARKS
PORTLAND ME    CLOUDY    49  37  63 SE10      30.20S                  
BANGOR ME      MOSUNNY   58  32  37 S13G22    30.16F                  
CONCORD NH     PTSUNNY   55  35  47 SE9G21    30.13F                  
MANCHESTER NH  PTSUNNY   58  35  42 S12G20    30.13F                  
NASHUA NH      MOSUNNY   57  36  45 SE9G18    30.15F                  
PORTSMOUTH NH  PTSUNNY   53  38  56 SE12      30.17F                  
JAFFREY NH     MOSUNNY   53  34  48 S9G18     30.13F                  
KEENE NH       CLOUDY    55  32  41 SW14      30.12F                  
BURLINGTON VT  PTSUNNY   55  38  52 S14G26    30.01F                  
MT. WASHINGTON FOG       36  32  87 SW14        N/A  VSB 1/16WCI  27  
$$

NYZ052-076-191700-
EASTERN NEW YORK
  
CITY           SKY/WX    TMP DP  RH WIND       PRES   REMARKS
ALBANY         PTSUNNY   56  36  47 S15G24    30.08F                  
NEW YORK CITY  PTSUNNY   52  40  63 NE12      30.13F                  
$$
 
ANZALL-191700-
MARINE OBSERVATIONS
  
STATION/POSITION TIME  TEMP    WIND        PRES    VSBY  WAVE
                       AIR SEA DIR/SP/G                  HT/PER
                 (UTC) (F)     (DEG/KT/KT) (MB)    (MI)  (FT/S)
BOSTON BUOY      1550   45     110/  8/ 10 1022.0F         1/11
BUZZARDS BAY     1500   46      80/ 10/ 11 1022.6F
NANTUCKET SOUND  1550   46 47   80/ 12/ 16 1021.3F         1/ 4
MASS BAY-STELLWA 1404   45 45  110/  8/  8 1023.2   1 7/8  2/11
ISLE OF SHOALS   1500   45     120/ 10/ 11 1022.3F
S OF BLOCK IS    1556      44                N/A           6/ 8
$$

......................KEY.........................
  SKY/WX - SKY CONDITION/PRESENT WEATHER
  TMP    - TEMPERATURE IN FAHRENHEIT
  DWPT   - DEWPOINT IN FAHRENHEIT
  RH     - RELATIVE HUMIDITY IN PERCENT
  WIND   - DIRECTION AND SPEED IN MPH
  PRES   - MEAN SEA LEVEL PRESSURE IN INCHES OF HG
  WCI    - WIND CHILL INDEX
  VSB    - VISIBILITY IN MILES
  HX     - HEAT INDEX
  TC     - TEMPERATURE IN CELSIUS
  VRB    - VARIABLE WIND DIRECTION
  N/A    - NOT AVAILABLE
  
      

Other recent Regional Weather Roundups

Mon Apr 22, 9:10am EDT

Mon Apr 22, 8:10am EDT

Mon Apr 22, 7:10am EDT

Mon Apr 22, 6:10am EDT

Mon Apr 22, 5:10am EDT

Mon Apr 22, 4:10am EDT

Mon Apr 22, 3:10am EDT

Mon Apr 22, 2:10am EDT

Mon Apr 22, 1:10am EDT

Mon Apr 22, 12:10am EDT

Sun Apr 21, 11:10pm EDT

Sun Apr 21, 10:10pm EDT

Sun Apr 21, 9:10pm EDT

Sun Apr 21, 8:10pm EDT

Sun Apr 21, 7:10pm EDT

Sun Apr 21, 6:10pm EDT

Sun Apr 21, 5:10pm EDT

Sun Apr 21, 4:10pm EDT

Sun Apr 21, 3:10pm EDT

Sun Apr 21, 2:10pm EDT

Sun Apr 21, 1:10pm EDT

Sun Apr 21, 12:10pm EDT

Sun Apr 21, 11:10am EDT

Sun Apr 21, 10:10am EDT

Sun Apr 21, 9:10am EDT

Sun Apr 21, 8:10am EDT

Sun Apr 21, 7:10am EDT

Sun Apr 21, 6:10am EDT

Sun Apr 21, 5:10am EDT

Sun Apr 21, 4:10am EDT

Sun Apr 21, 3:10am EDT

Sun Apr 21, 2:10am EDT

Sun Apr 21, 1:10am EDT

Sun Apr 21, 12:10am EDT

Sat Apr 20, 11:10pm EDT

Sat Apr 20, 10:10pm EDT

Sat Apr 20, 9:10pm EDT

Sat Apr 20, 8:10pm EDT

Sat Apr 20, 7:10pm EDT

Sat Apr 20, 6:10pm EDT

Sat Apr 20, 5:10pm EDT

Sat Apr 20, 4:10pm EDT

Sat Apr 20, 3:10pm EDT

Sat Apr 20, 2:10pm EDT

Sat Apr 20, 1:10pm EDT

Sat Apr 20, 12:10pm EDT

Sat Apr 20, 11:10am EDT

Sat Apr 20, 10:10am EDT

Sat Apr 20, 9:10am EDT

Sat Apr 20, 8:10am EDT

Sat Apr 20, 7:10am EDT

Sat Apr 20, 6:10am EDT

Sat Apr 20, 5:10am EDT

Sat Apr 20, 4:10am EDT

Sat Apr 20, 3:10am EDT

Sat Apr 20, 2:10am EDT

Sat Apr 20, 1:10am EDT

Sat Apr 20, 12:10am EDT

Fri Apr 19, 11:10pm EDT

Fri Apr 19, 10:10pm EDT

Fri Apr 19, 9:10pm EDT

Fri Apr 19, 8:10pm EDT

Fri Apr 19, 7:10pm EDT

Fri Apr 19, 6:10pm EDT

Fri Apr 19, 5:10pm EDT

Fri Apr 19, 4:10pm EDT

Fri Apr 19, 3:10pm EDT

Fri Apr 19, 2:10pm EDT

Fri Apr 19, 1:10pm EDT

Fri Apr 19, 11:10am EDT

Fri Apr 19, 10:10am EDT

Fri Apr 19, 9:10am EDT

Fri Apr 19, 8:10am EDT

Fri Apr 19, 7:10am EDT

Fri Apr 19, 6:10am EDT

Fri Apr 19, 5:10am EDT

Fri Apr 19, 4:10am EDT

Fri Apr 19, 3:10am EDT

Fri Apr 19, 2:10am EDT

Fri Apr 19, 1:10am EDT

Fri Apr 19, 12:10am EDT

Thu Apr 18, 11:10pm EDT

Thu Apr 18, 10:10pm EDT

Thu Apr 18, 9:10pm EDT

Thu Apr 18, 8:10pm EDT

Thu Apr 18, 7:10pm EDT

Thu Apr 18, 6:10pm EDT

Thu Apr 18, 5:10pm EDT

Thu Apr 18, 4:10pm EDT

Thu Apr 18, 3:10pm EDT

Thu Apr 18, 2:10pm EDT

Thu Apr 18, 1:10pm EDT

Thu Apr 18, 12:10pm EDT

Thu Apr 18, 11:10am EDT

Thu Apr 18, 10:10am EDT

Thu Apr 18, 9:10am EDT

Thu Apr 18, 8:10am EDT

Thu Apr 18, 7:10am EDT

Thu Apr 18, 6:10am EDT

Thu Apr 18, 5:10am EDT

Thu Apr 18, 4:10am EDT

Thu Apr 18, 3:10am EDT

Thu Apr 18, 2:10am EDT

Thu Apr 18, 1:10am EDT

Thu Apr 18, 12:10am EDT

Wed Apr 17, 11:10pm EDT

Wed Apr 17, 10:10pm EDT

Wed Apr 17, 9:10pm EDT

Wed Apr 17, 8:10pm EDT

Wed Apr 17, 7:10pm EDT

Wed Apr 17, 6:10pm EDT

Wed Apr 17, 5:10pm EDT

Wed Apr 17, 4:10pm EDT

Wed Apr 17, 3:10pm EDT

Wed Apr 17, 2:10pm EDT

Wed Apr 17, 1:10pm EDT

Wed Apr 17, 12:10pm EDT

Wed Apr 17, 11:10am EDT

Wed Apr 17, 10:10am EDT

Wed Apr 17, 9:10am EDT

Wed Apr 17, 8:10am EDT

Wed Apr 17, 7:10am EDT

Wed Apr 17, 6:10am EDT

Wed Apr 17, 5:10am EDT

Wed Apr 17, 4:10am EDT

Wed Apr 17, 3:10am EDT

Wed Apr 17, 2:10am EDT

Wed Apr 17, 1:10am EDT

Wed Apr 17, 12:10am EDT

Tue Apr 16, 11:10pm EDT

Tue Apr 16, 10:10pm EDT

Tue Apr 16, 9:10pm EDT

Tue Apr 16, 8:10pm EDT

Tue Apr 16, 7:10pm EDT

Tue Apr 16, 6:10pm EDT

Tue Apr 16, 5:10pm EDT

Tue Apr 16, 4:10pm EDT

Tue Apr 16, 3:10pm EDT

Tue Apr 16, 2:10pm EDT

Tue Apr 16, 1:10pm EDT

Tue Apr 16, 12:10pm EDT

Tue Apr 16, 11:10am EDT

Tue Apr 16, 10:10am EDT

Tue Apr 16, 9:10am EDT

Tue Apr 16, 8:10am EDT

Tue Apr 16, 7:10am EDT

Tue Apr 16, 6:10am EDT

Tue Apr 16, 5:10am EDT

Tue Apr 16, 4:10am EDT

Tue Apr 16, 3:10am EDT

Tue Apr 16, 2:10am EDT

Tue Apr 16, 1:10am EDT

Tue Apr 16, 12:10am EDT

Mon Apr 15, 11:10pm EDT

Mon Apr 15, 10:10pm EDT

Mon Apr 15, 9:10pm EDT

Mon Apr 15, 8:10pm EDT

Mon Apr 15, 7:10pm EDT

Mon Apr 15, 6:10pm EDT

Mon Apr 15, 5:10pm EDT

Mon Apr 15, 4:10pm EDT

Mon Apr 15, 3:10pm EDT

Mon Apr 15, 2:10pm EDT

Mon Apr 15, 1:10pm EDT

Mon Apr 15, 12:10pm EDT

Mon Apr 15, 11:10am EDT

Mon Apr 15, 10:10am EDT